World > North America > United States > Ohio > Deerfield  

Deerfield, OH Hourly Weather Updates

Feedback E-mail the Weather

Quick Clicks

Deerfield, OH Weather Maps

°F °C°F °C
Deerfield Weather Map
UTC Time: 7/18/2024, 17:13
Your Time:

Deerfield, OH Regional Weather

Expires:202407181800;;257633
ASUS41 KCLE 181712
RWRCLE
OHIO REGIONAL WEATHER ROUNDUP
NATIONAL WEATHER SERVICE WILMINGTON, OH
100 PM EDT THU JUL 18 2024

NOTE: "FAIR" INDICATES FEW OR NO CLOUDS BELOW 12,000 FEET WITH NO
SIGNIFICANT WEATHER AND/OR OBSTRUCTIONS TO VISIBILITY.


OHZ009>014-019>023-028>033-038-089-181800-
   NORTHEAST OHIO
  
CITY           SKY/WX    TMP DP  RH WIND       PRES   REMARKS
CLE-HOPKINS    PTSUNNY   73  55  53 N13G21    30.10S                  
CLE-LAKEFRONT  PTSUNNY   75  59  57 N10       30.10S                  
CUY CO. ARPT   PTSUNNY   72  57  60 N13       30.11S                  
LORAIN-ELYRIA  FAIR      71  55  56 N9G21     30.12S                  
ASHTABULA      PTSUNNY   71  57  61 N9        30.10R                  
AKRON-CANTON   PTSUNNY   73  58  59 N12       30.08F                  
WOOSTER        PTSUNNY   74  57  55 N8        30.10R                  
MANSFIELD      PTSUNNY   72  56  57 NW14G21   30.11S                  
YOUNGSTOWN     PTSUNNY   74  58  57 NW8       30.09S                  
$$
 

SKY/WX - Weather  TMP - Temperature  DP - Dew Point  RH - Humidity
WIND - Wind Direction/Speed PRES - Barometric Pressure VSB - Visibility
WCI - Wind Chill Index E13G22 Wind - East Wind 13 mph/Gusts of 22 mph

Trending Headlines

Trending Entertainment Headlines

Deerfield Radar Loop

Use the map search tool if you want to place a location marker on the radar map...

Deerfield Quick Facts

National Two Day Weather Forecast


E-mail the Deerfield Weather Forecast

Voice your opinion or tell us about page issues...